ONEWEB-0311 (49097 NORAD) Tracking and Keplerian Element Data

This shows tracking and keplerian element data for the satellite.

Feedback or suggestion? Click here.




ElementValue
Catalog49097
NameONEWEB-0311
Epoch Orbit352
Epoch Day300.58334491
Epoch Year2021
RAAN344.3979
Inclination87.5921
Eccentricity0.0022175
Argument of Perigee65.0542
Mean Anonmoly266.5036
Mean Motion14.38087251
Decay Rate-0.01372589
L11 49097U 21075Y 21300.58334491 -.01372589 00000-0 -48301+0 0 9999
L22 49097 87.5921 344.3979 0022175 65.0542 266.5036 14.38087251 3528

Live tracking and technical data element details for ONEWEB-0311 (NORAD 49097). ONEWEB-0311 can be tracked NOW for your location showing map with azimuth and elevation plus other details from your city location.

Track the satellite on the map from your city or location and see movement details for azimuth, elevation, latitude, longitude, range, height, and movement on the map or in text.







IsCatalogInMostPopularTable: catalog: 49097, numindb: 13
Update: records affected: 1



GetName: 49097 ONEWEB-0311

Hit Count: updated at: Thu, 28 Oct 2021 11:01:43 GMT